Location: Chrome
(40.5765°N, 74.2163°W)
Time: 01:27:53
(UTC+00:00)

Cosmos 1980 - Pass Details

Date: 06 December 2019
Orbit: 838 x 848 km, 71.0° (Epoch: 17 January)

Event Time Altitude Azimuth Distance (km) Brightness Sun altitude
Rises 22:20:00 0° 182° (S) 3,373 7.2 -9.4°
Reaches altitude 10° 22:22:32 10° 175° (S) 2,443 6.3 -9.9°
Maximum altitude 22:27:46 42° 106° (ESE) 1,181 4.1 -10.8°
Drops below altitude 10° 22:33:02 10° 37° (NE) 2,462 5.6 -11.8°
Enters shadow 22:33:03 10° 37° (NE) 2,468 5.6 -11.8°
